User: anonymous   Login
Location: Unspecified
(0.0000°N, 0.0000°E)
Time: 20:16:52
(UTC+00:00)
Language:

Cosmos 2219 Rocket - Orbit

View from above orbital plane
View from above orbital plane
View from above satellite
View from above satellite

Ground track
Ground track

The orbit data is extracted from the following two-line orbital elements,

1 22220U 92076B   22016.11757459  .00000165  00000-0  10678-3 0  9999
2 22220  71.0003 135.5513 0014951 245.9967 286.9294 14.16481152507809
Epoch (UTC): 16 January 2022 02:49:18
Eccentricity: 0.0014951
inclination: 71.0003°
perigee height: 826 km
apogee height: 848 km
right ascension of ascending node: 135.5513°
argument of perigee: 245.9967°
revolutions per day: 14.16481152
mean anomaly at epoch: 286.9294°
orbit number at epoch: 50780

The dashed part of the orbit path shows where the satellite is in the earth's shadow,  

DLR